Home > Weather > West Palm Beach > Past weeks

Flag for USA Past Weather in West Palm Beach, Florida, USA — Yesterday and Last 2 Weeks

Now
78 °F

Passing clouds.


Feels Like: 80 °F
Forecast: 75 / 85 °F
Wind: 7 mph from East

Location: Palm Beach International Airport

Current Time: May 28, 2016 at 2:08:24 AM

Latest Report: May 28, 2016 at 12:53 AM


Visibility: 10 mi

Pressure: 29.98 "Hg

Humidity: 79%

Dew Point: 71 °F

Location of West Palm BeachLocation

Past Weather in West Palm Beach — Graph

°F

West Palm Beach Temperature Yesterday

Maximum temperature yesterday: 82 °F (at 8:53 AM)
Minimum temperature yesterday: 77 °F (at 4:53 AM)
Average temperature yesterday: 79 °F

High & Low Weather Summary for the Past Weeks

 TemperatureHumidityPressure
High90 °F (May 21, 2:53 PM)100% (May 18, 8:53 PM)30.21 "Hg (May 18, 8:53 PM)
Low68 °F (May 26, 6:53 AM)36% (May 15, 10:53 AM)29.85 "Hg (May 22, 5:53 PM)
Average80 °F68%30.03 "Hg
* Reported May 13 12:53 AM — May 28 12:53 AM, West Palm Beach, Weather by CustomWeather, © 2016

Note: Actual official high and low records may vary slightly from our data, if they occured in-between our weather recording intervals... More about our weather records

Advertising

West Palm Beach Weather History for the Previous 24 Hours

Scroll right to see more
 ConditionsComfort  
Time TempWeatherWind HumidityBarometerVisibility
12:53 AM
Sat, May 28
78 °FPassing clouds.7 mph79%29.98 "Hg10 mi
11:53 PM
Fri, May 27
77 °FLight rain. Partly cloudy.5 mph82%29.98 "Hg9 mi
10:53 PM79 °FPassing clouds.9 mph69%29.98 "Hg10 mi
9:53 PM79 °FLight rain. Passing clouds.7 mph74%29.96 "Hg10 mi
8:53 PM79 °FBroken clouds.9 mph77%29.95 "Hg10 mi
7:53 PM80 °FBroken clouds.10 mph69%29.95 "Hg10 mi
6:53 PM80 °FBroken clouds.10 mph69%29.95 "Hg10 mi
5:53 PM79 °FBroken clouds.12 mph72%29.95 "Hg10 mi
4:53 PM81 °FLight rain. Partly sunny.12 mph67%29.96 "Hg10 mi
3:53 PM81 °FBroken clouds.14 mph67%29.97 "Hg10 mi
2:53 PM81 °FBroken clouds.15 mph69%29.99 "Hg10 mi
1:53 PM80 °FBroken clouds.14 mph69%30.01 "Hg10 mi
12:53 PM80 °FBroken clouds.17 mph74%30.02 "Hg7 mi
11:53 AM81 °FBroken clouds.14 mph65%30.03 "Hg10 mi
10:53 AM78 °FBroken clouds.13 mph74%30.02 "Hg10 mi
9:53 AM80 °FPartly sunny.14 mph64%30.02 "Hg10 mi
8:53 AM82 °FScattered clouds.10 mph60%30.01 "Hg10 mi
7:53 AM80 °FScattered clouds.9 mph60%29.99 "Hg10 mi
6:53 AM78 °FPassing clouds.7 mph64%29.99 "Hg10 mi
5:53 AM77 °FPassing clouds.6 mph64%29.98 "Hg10 mi
4:53 AM77 °FPassing clouds.9 mph62%29.98 "Hg10 mi
3:53 AM78 °FPassing clouds.9 mph60%29.98 "Hg10 mi
2:53 AM78 °FPassing clouds.10 mph58%30.00 "Hg10 mi
Weather by CustomWeather, © 2016

See weather overviewHow to use our weather pages